Weather in Novoselye

Russia / Pskov Oblast     58°31′42″N   28°49′46″E
temp.,
°C
wind,
m/s
gust,
m/s
humid.,
%
clouds,
%
prec.,
mm/h
press.,
hPa
HPBL,
m
16 april, fri
fri1600:00+4ne5126994 0.0 1026591
03:00+3ne5127785 0.0 1026446
06:00+2ne41282100 0.0 1026443
09:00+5ne51368100 0.0 1026516
12:00+10ene6105495 0.0 1025800
15:00+12ene6950100 0.0 10251074
18:00+12ene5105395 0.0 10251027
21:00+8ene5135835 0.0 1026624
17 april, sat
sat1700:00+7ene5136365 0.0 1026534
03:00+5ene4127318 0.0 1027383
06:00+3ene4127992 0.0 1027361
09:00+7ene5106491 0.0 1027482
12:00+12ene585460 0.0 1027963
15:00+14ene575175 0.0 10271223
18:00+14ene475257 0.0 10261215
21:00+9ne3116270 0.0 1027300
18 april, sun
sun1800:00+6ne3126812 0.0 1028310
03:00+4ne310815 0.0 1028246
06:00+3ne310870 0.0 1028236
09:00+8ene49620 0.0 1028481
12:00+12ene57421 0.0 10271378
15:00+14ene56365 0.0 10261823
18:00+13ene46415 0.0 10261963
21:00+8ene26638 0.0 1027108
19 april, mon
mon1900:00+5ene29767 0.0 1028200
03:00+4ene27837 0.0 1028132
06:00+3ene279223 0.0 1028144
09:00+8ene47665 0.0 1028479
12:00+12e46497 0.0 10271567
15:00+14e464192 0.0 10252159
18:00+11e3758100 0.0 1025880
21:00+9e396788 0.0 1025589
20 april, tue
tue2000:00+8e3974100 0.0 1024598
03:00+7e3876100 0.0 1023541
06:00+6ene3879100 0.0 1022506
09:00+7ene4872100 0.0 1020719
12:00+9e565699 0.0 10191407
15:00+11ene4649100 0.0 10161734
18:00+10ne475192 0.0 10141497
21:00+7ne4966100 0.0 1012496